sat.trackr.live / text

‹ back to catalog

STARLINK-1090

NORAD 44968 · 2020-001BG

PAYLOAD ACTIVE UNKNOWN

§ Identity

Operator
Country
US
Launch date
2020-01-07
Launch site
AFETR
Launch vehicle
Mass (kg)
RCS (m²)

Purposes: comms

External: N2YO · Heavens-Above · Gunter

§ Orbital elements

Epoch: 2026-09-20T04:17:50.307072Z

Period
92.09 min
Inclination
53.1412°
Eccentricity
0.0000530
Mean motion
15.63668659 rev/d
Perigee alt
376.7 km
Apogee alt
377.4 km
Semi-major
6,755.2 km
B*
7.2096e-4
RAAN
97.0613°
Arg perigee
180.5707°
Mean anomaly
179.5308°
Rev number
37,055

§ Raw data

STARLINK-10901 44968U 20001BG  26263.17905448  .00068456  00000+0  72096-3 0  99962 44968  53.1412  97.0613 0000530 180.5707 179.5308 15.63668659370559

JSON: /api/v1/satellites/44968 · /tle

For live sub-satellite position, see the globe view (requires WebGL).

§ Visibility from observer

Set your observer location to see the next 7 days of passes ≥ 10°. The values pass through the URL so the page stays shareable.

No JS? Fill the form by hand. The geolocation button needs JavaScript.